�N����,����,�~����,�C��,���x,�C��,����,���ϕ���,�ő�u�ԕ���,�ő厞����,���˗�,�I�_���x,�n�����x,�ő啗���N��,DTYPE
"22/06/09","00:10",0.0,16.4,86.1,1008.8,332.3,2.1,3.1,332.5,0.00,14.1,19.1,"00:07:28",1
"22/06/09","00:20",0.0,16.3,86.6,1008.6,334.4,2.5,5.1,347.4,0.00,14.1,18.9,"00:13:36",1
"22/06/09","00:30",0.0,16.2,86.9,1008.3,332.1,2.3,4.1,347.6,0.00,14.1,19.0,"00:23:12",1
"22/06/09","00:40",0.0,16.0,87.4,1008.6,331.1,2.6,4.0,336.7,0.00,13.9,18.9,"00:36:32",1
"22/06/09","00:50",0.0,16.0,87.6,1008.3,327.9,2.7,4.4,322.4,0.00,14.0,19.1,"00:48:48",1
"22/06/09","01:00",0.0,15.9,87.9,1008.6,329.9,2.2,3.2,338.0,0.00,13.9,18.9,"00:52:00",1
"22/06/09","01:10",0.0,15.7,88.0,1008.6,325.4,2.5,4.3,329.5,0.00,13.8,18.9,"01:04:16",1
"22/06/09","01:20",0.0,15.6,88.2,1008.3,324.9,2.3,3.3,342.7,0.00,13.7,19.0,"01:13:52",1
"22/06/09","01:30",0.0,15.5,88.3,1008.8,303.3,2.0,3.2,318.9,0.00,13.6,18.9,"01:20:32",1
"22/06/09","01:40",0.0,15.2,88.4,1009.0,317.4,2.1,2.8,297.9,0.00,13.3,18.8,"01:38:24",1
"22/06/09","01:50",0.0,15.2,88.7,1008.6,319.2,2.3,3.6,326.4,0.00,13.4,18.7,"01:48:00",1
"22/06/09","02:00",0.0,15.1,89.0,1008.6,338.7,2.2,3.5,341.6,0.00,13.3,18.7,"01:55:54",1
"22/06/09","02:10",0.0,15.0,89.2,1008.8,338.8,2.0,2.8,340.5,0.00,13.3,18.8,"02:02:08",1
"22/06/09","02:20",0.0,15.0,89.4,1008.8,339.4,1.7,2.6,337.0,0.00,13.3,18.9,"02:10:16",1
"22/06/09","02:30",0.0,14.9,89.7,1008.6,336.8,2.1,3.1,342.7,0.00,13.3,18.8,"02:27:20",1
"22/06/09","02:40",0.0,14.8,89.8,1008.8,335.6,2.1,3.2,348.8,0.00,13.2,18.9,"02:39:28",1
"22/06/09","02:50",0.0,14.8,90.0,1008.6,329.2,2.5,4.2,332.9,0.00,13.2,18.9,"02:49:40",1
"22/06/09","03:00",0.0,14.9,90.1,1008.6,332.2,2.6,3.9,319.5,0.00,13.3,18.8,"02:53:20",1
"22/06/09","03:10",0.0,15.0,90.2,1008.8,331.7,2.6,4.3,341.8,0.00,13.4,18.7,"03:01:04",1
"22/06/09","03:20",0.0,15.0,90.3,1008.6,327.1,2.5,3.9,334.2,0.00,13.5,18.7,"03:17:20",1
"22/06/09","03:30",0.0,14.8,90.5,1008.6,321.9,2.5,3.4,327.0,0.00,13.3,18.6,"03:22:48",1
"22/06/09","03:40",0.0,14.7,90.5,1008.6,306.3,2.7,4.0,307.5,0.00,13.2,18.8,"03:34:56",1
"22/06/09","03:50",0.0,14.6,90.6,1008.8,311.0,2.6,3.6,310.9,0.00,13.1,18.6,"03:48:22",1
"22/06/09","04:00",0.0,14.5,90.7,1008.8,311.2,2.7,3.9,324.3,0.00,13.0,18.6,"03:54:40",1
"22/06/09","04:10",0.0,14.5,90.9,1008.6,309.8,2.7,4.3,326.2,0.00,13.1,18.6,"04:09:48",1
"22/06/09","04:20",0.0,14.5,91.0,1008.6,312.8,3.0,5.2,326.2,0.00,13.1,18.6,"04:10:40",1
"22/06/09","04:30",0.0,14.7,91.0,1008.3,315.6,3.2,4.5,320.3,0.00,13.3,18.5,"04:27:54",1
"22/06/09","04:40",0.0,14.7,91.0,1008.8,324.9,3.1,4.2,329.2,0.00,13.3,18.5,"04:33:02",1
"22/06/09","04:50",0.0,14.7,91.0,1008.6,327.0,3.2,4.9,340.3,0.00,13.3,18.4,"04:45:52",1
"22/06/09","05:00",0.0,14.8,91.1,1008.8,329.4,3.2,5.0,319.9,0.00,13.4,18.4,"04:53:00",1
"22/06/09","05:10",0.0,14.6,91.3,1008.8,331.3,3.1,5.7,342.2,0.00,13.2,18.6,"05:03:18",1
"22/06/09","05:20",0.0,14.6,91.4,1009.3,329.4,3.0,5.2,316.8,0.00,13.3,18.5,"05:10:18",1
"22/06/09","05:30",0.0,14.5,91.6,1009.3,333.5,2.8,5.0,344.3,0.00,13.2,18.5,"05:20:42",1
"22/06/09","05:40",0.0,14.6,91.8,1008.8,328.3,2.7,4.4,325.2,0.00,13.3,18.2,"05:30:56",1
"22/06/09","05:50",0.0,14.6,91.9,1009.0,332.1,2.6,4.3,348.2,0.00,13.3,18.4,"05:40:56",1
"22/06/09","06:00",0.0,14.7,92.0,1009.0,327.6,3.5,5.1,335.0,0.00,13.5,18.3,"05:54:02",1
"22/06/09","06:10",0.0,14.8,92.1,1009.3,330.9,2.6,4.9,344.3,0.00,13.6,18.4,"06:00:08",1
"22/06/09","06:20",0.0,15.0,92.1,1009.5,332.3,2.1,3.4,340.3,0.02,13.8,18.3,"06:10:16",1
"22/06/09","06:30",0.0,15.3,92.0,1009.3,332.5,2.2,3.7,344.8,0.03,14.0,18.1,"06:22:16",1
"22/06/09","06:40",0.0,15.6,91.7,1009.5,334.2,2.3,3.7,345.6,0.05,14.3,18.2,"06:36:32",1
"22/06/09","06:50",0.0,16.0,91.2,1009.5,324.8,2.3,4.4,314.4,0.07,14.6,18.3,"06:46:56",1
"22/06/09","07:00",0.0,16.2,90.5,1009.7,326.1,2.8,4.7,338.1,0.09,14.7,18.2,"06:53:44",1
"22/06/09","07:10",0.0,16.5,89.2,1009.7,337.4,2.8,4.5,349.8,0.11,14.8,18.2,"07:00:40",1
"22/06/09","07:20",0.0,16.9,88.2,1009.5,334.4,2.8,4.3,0.3,0.14,15.0,18.3,"07:14:40",1
"22/06/09","07:30",0.0,17.4,86.7,1010.2,337.4,2.7,4.5,321.1,0.16,15.2,18.3,"07:22:24",1
"22/06/09","07:40",0.0,18.0,84.7,1010.0,318.0,2.2,4.0,342.8,0.19,15.4,18.4,"07:34:32",1
"22/06/09","07:50",0.0,19.0,83.0,1009.5,329.9,1.6,3.2,315.6,0.21,16.1,18.3,"07:41:44",1
"22/06/09","08:00",0.0,19.9,79.8,1010.0,354.7,1.0,2.0,352.9,0.24,16.4,18.1,"07:53:04",1
"22/06/09","08:10",0.0,20.1,76.7,1009.7,278.9,1.1,2.6,332.6,0.26,15.9,18.4,"08:06:08",1
"22/06/09","08:20",0.0,20.6,74.6,1009.5,300.2,0.8,2.9,337.0,0.29,16.0,18.2,"08:11:12",1
"22/06/09","08:30",0.0,21.2,72.9,1009.5,205.0,0.6,1.6,200.7,0.31,16.2,18.1,"08:26:56",1
"22/06/09","08:40",0.0,21.9,71.7,1009.3,181.6,0.5,1.2,158.0,0.34,16.6,18.3,"08:34:48",1
"22/06/09","08:50",0.0,22.0,69.2,1009.5,235.8,1.0,2.0,237.9,0.36,16.1,18.1,"08:45:12",1
"22/06/09","09:00",0.0,22.7,67.4,1009.0,94.9,0.6,1.7,132.6,0.38,16.4,18.4,"08:54:24",1
"22/06/09","09:10",0.0,23.6,63.5,1008.6,94.9,0.6,1.8,23.0,0.40,16.3,18.3,"09:01:12",1
"22/06/09","09:20",0.0,24.0,62.5,1008.8,155.9,0.8,2.4,4.0,0.42,16.4,18.5,"09:18:56",1
"22/06/09","09:30",0.0,23.7,61.3,1008.3,353.5,1.1,2.4,351.2,0.44,15.9,18.2,"09:26:40",1
"22/06/09","09:40",0.0,24.1,60.9,1008.3,132.7,0.7,2.1,122.4,0.46,16.1,18.1,"09:37:12",1
"22/06/09","09:50",0.0,24.9,61.3,1007.8,139.7,1.0,2.5,124.4,0.48,17.0,18.5,"09:47:12",1
"22/06/09","10:00",0.0,24.7,60.0,1007.8,199.2,0.8,1.9,180.4,0.50,16.5,18.6,"09:56:48",1
"22/06/09","10:10",0.0,24.8,60.8,1007.8,178.3,1.6,2.8,152.4,0.51,16.8,18.4,"10:06:32",1
"22/06/09","10:20",0.0,25.4,56.7,1007.6,354.2,0.8,1.9,0.9,0.53,16.2,18.3,"10:19:52",1
"22/06/09","10:30",0.0,26.3,56.0,1007.6,91.6,0.8,2.4,12.0,0.54,16.9,18.4,"10:28:08",1
"22/06/09","10:40",0.0,26.1,55.1,1008.1,359.6,1.1,2.7,41.2,0.55,16.4,18.6,"10:31:44",1
"22/06/09","10:50",0.0,26.2,55.7,1008.1,199.9,1.1,3.2,241.9,0.56,16.7,18.6,"10:49:36",1
"22/06/09","11:00",0.0,27.0,56.9,1008.1,150.6,0.8,2.5,124.3,0.57,17.8,18.7,"10:56:40",1
"22/06/09","11:10",0.0,27.5,53.5,1008.3,293.7,0.5,1.6,209.2,0.58,17.3,18.6,"11:09:20",1
"22/06/09","11:20",0.0,27.2,52.6,1008.1,173.9,1.3,3.1,209.9,0.59,16.7,18.7,"11:10:24",1
"22/06/09","11:30",0.0,27.4,49.3,1007.8,162.0,1.2,2.4,183.3,0.60,15.9,18.7,"11:20:48",1
"22/06/09","11:40",0.0,27.9,49.8,1008.1,255.2,0.8,2.7,29.5,0.61,16.5,18.7,"11:35:28",1
"22/06/09","11:50",0.0,28.5,50.1,1008.1,118.7,0.6,2.2,133.6,0.60,17.1,19.1,"11:44:40",1
"22/06/09","12:00",0.0,28.5,46.2,1007.8,82.9,1.0,2.5,108.2,0.60,15.9,18.8,"11:55:28",1
"22/06/09","12:10",0.0,28.5,46.6,1008.1,105.0,0.8,2.7,351.3,0.54,16.0,19.0,"12:09:20",1
"22/06/09","12:20",0.0,28.6,45.3,1007.8,7.2,1.1,4.0,354.6,0.62,15.7,19.1,"12:15:12",1
"22/06/09","12:30",0.0,28.7,46.3,1007.4,359.6,1.3,2.9,0.3,0.62,16.1,18.9,"12:20:48",1
"22/06/09","12:40",0.0,28.7,43.6,1007.6,264.8,1.2,3.3,0.3,0.63,15.1,19.1,"12:30:32",1
"22/06/09","12:50",0.0,28.5,44.1,1007.6,228.0,1.7,3.1,236.3,0.66,15.1,19.3,"12:48:56",1
"22/06/09","13:00",0.0,29.0,46.9,1007.4,216.0,1.3,3.7,141.5,0.64,16.6,19.1,"12:58:40",1
"22/06/09","13:10",0.0,29.3,43.8,1007.4,142.1,1.2,2.8,138.6,0.65,15.8,19.3,"13:04:56",1
"22/06/09","13:20",0.0,30.4,40.8,1007.6,345.2,0.7,2.1,311.1,0.64,15.6,19.5,"13:17:20",1
"22/06/09","13:30",0.0,29.8,39.2,1007.8,328.0,0.7,2.1,344.5,0.40,14.5,19.4,"13:20:32",1
"22/06/09","13:40",0.0,28.0,44.5,1007.1,173.9,1.3,3.2,185.6,0.22,14.8,19.4,"13:35:28",1
"22/06/09","13:50",0.0,27.9,44.1,1006.7,193.3,0.8,2.1,176.7,0.31,14.6,19.5,"13:44:08",1
"22/06/09","14:00",0.0,28.8,41.2,1006.9,355.6,1.0,3.7,232.9,0.40,14.4,19.6,"13:59:36",1
"22/06/09","14:10",0.0,29.0,39.5,1006.7,216.5,1.6,3.9,180.6,0.52,13.9,19.5,"14:08:00",1
"22/06/09","14:20",0.0,28.5,42.2,1006.4,138.5,1.1,3.1,259.6,0.31,14.5,19.8,"14:10:16",1
"22/06/09","14:30",0.0,29.6,41.6,1006.7,12.5,1.2,3.4,359.0,0.58,15.2,19.7,"14:28:24",1
"22/06/09","14:40",0.0,29.9,40.5,1006.9,226.7,1.3,3.7,189.9,0.56,15.1,19.7,"14:37:12",1
"22/06/09","14:50",0.0,29.5,40.4,1006.4,220.6,1.8,4.1,234.7,0.44,14.7,19.7,"14:46:00",1
"22/06/09","15:00",0.0,29.4,39.1,1006.2,217.1,2.2,4.1,216.8,0.45,14.1,19.8,"14:58:16",1
"22/06/09","15:10",0.0,29.8,40.8,1006.0,175.0,1.2,3.7,154.3,0.51,15.1,19.8,"15:07:04",1
"22/06/09","15:20",0.0,29.4,39.6,1006.0,244.7,1.3,3.2,208.8,0.29,14.3,20.0,"15:11:52",1
"22/06/09","15:30",0.0,28.4,42.3,1006.0,246.7,1.2,3.3,211.8,0.15,14.4,20.0,"15:27:36",1
"22/06/09","15:40",0.0,28.9,41.9,1005.7,229.3,2.2,4.5,243.1,0.35,14.7,19.9,"15:38:56",1
"22/06/09","15:50",0.0,28.4,43.2,1005.2,246.1,2.2,4.3,254.7,0.30,14.7,20.1,"15:43:04",1
"22/06/09","16:00",0.0,29.2,43.0,1005.2,242.5,2.1,4.1,233.2,0.43,15.4,20.2,"15:51:20",1
"22/06/09","16:10",0.0,29.9,40.5,1005.7,218.4,1.3,2.8,245.2,0.42,15.1,20.1,"16:04:32",1
"22/06/09","16:20",0.0,30.4,40.7,1005.7,292.5,0.8,2.9,344.3,0.36,15.6,20.2,"16:17:36",1
"22/06/09","16:30",0.0,30.4,41.2,1005.7,174.1,0.8,1.9,191.5,0.32,15.8,20.4,"16:25:28",1
"22/06/09","16:40",0.0,28.9,42.8,1005.7,186.0,1.8,4.0,183.0,0.19,15.0,20.2,"16:38:24",1
"22/06/09","16:50",0.0,29.3,41.9,1005.5,222.8,2.3,4.8,221.6,0.27,15.1,20.2,"16:43:52",1
"22/06/09","17:00",0.0,29.1,41.5,1005.2,260.0,1.7,4.3,244.8,0.24,14.7,20.4,"16:52:40",1
"22/06/09","17:10",0.0,29.2,41.8,1005.2,248.1,1.3,2.8,236.8,0.21,14.9,20.6,"17:03:52",1
"22/06/09","17:20",0.0,29.0,40.8,1005.0,246.9,1.7,3.3,343.8,0.08,14.4,20.4,"17:12:56",1
"22/06/09","17:30",0.0,29.0,41.3,1005.2,177.2,1.1,3.1,236.6,0.03,14.6,20.5,"17:29:12",1
"22/06/09","17:40",0.0,28.3,45.4,1004.8,211.4,2.2,5.0,200.4,0.04,15.4,20.5,"17:37:44",1
"22/06/09","17:50",0.0,27.9,48.2,1004.5,202.4,2.6,4.8,195.9,0.03,16.0,20.4,"17:44:48",1
"22/06/09","18:00",0.0,27.6,47.7,1004.5,197.6,2.3,3.9,174.5,0.03,15.6,20.5,"17:50:40",1
"22/06/09","18:10",0.0,27.4,47.3,1004.3,195.9,1.8,3.9,232.9,0.03,15.2,20.6,"18:00:08",1
"22/06/09","18:20",0.0,27.4,44.4,1004.5,205.9,1.7,3.4,209.8,0.04,14.3,20.4,"18:18:08",1
"22/06/09","18:30",0.0,27.0,49.0,1004.8,186.4,2.2,4.0,210.5,0.03,15.4,20.6,"18:26:48",1
"22/06/09","18:40",0.0,26.7,51.4,1004.8,191.3,2.2,4.0,163.2,0.02,15.9,20.5,"18:32:08",1
"22/06/09","18:50",0.0,26.3,53.0,1005.7,202.0,2.1,4.3,209.4,0.01,16.0,20.6,"18:42:56",1
"22/06/09","19:00",0.0,26.1,53.2,1006.0,184.2,2.0,4.1,222.5,0.01,15.9,20.5,"18:50:48",1
"22/06/09","19:10",0.0,25.7,54.6,1006.0,199.3,1.6,4.0,230.7,0.00,15.9,20.3,"19:00:56",1
"22/06/09","19:20",0.0,25.3,55.7,1006.7,197.8,1.7,4.4,223.0,0.00,15.9,20.4,"19:15:04",1
"22/06/09","19:30",0.0,24.9,58.2,1006.9,242.6,1.1,2.2,230.9,0.00,16.2,20.6,"19:28:00",1
"22/06/09","19:40",0.0,24.5,60.4,1006.9,300.6,1.2,2.0,325.7,0.00,16.4,20.6,"19:36:32",1
"22/06/09","19:50",0.0,24.1,61.6,1006.7,325.5,1.5,2.6,334.9,0.00,16.3,20.7,"19:45:28",1
"22/06/09","20:00",0.0,23.7,63.4,1007.4,342.1,1.5,3.2,347.4,0.00,16.4,20.4,"19:58:56",1
"22/06/09","20:10",0.0,23.3,63.6,1007.4,325.4,1.6,2.8,325.1,0.00,16.1,20.6,"20:01:36",1
"22/06/09","20:20",0.0,23.0,64.4,1007.6,306.9,1.0,2.5,337.4,0.00,16.0,20.4,"20:17:36",1
"22/06/09","20:30",0.0,22.7,66.4,1007.6,346.1,1.0,1.7,1.2,0.00,16.2,20.3,"20:23:20",1
"22/06/09","20:40",0.0,22.3,67.4,1008.1,321.3,1.0,1.6,318.7,0.00,16.0,20.3,"20:39:28",1
"22/06/09","20:50",0.0,21.9,68.7,1008.1,311.4,1.1,2.4,327.9,0.00,15.9,20.6,"20:48:40",1
"22/06/09","21:00",0.0,21.7,70.1,1008.3,331.8,2.1,3.2,297.7,0.00,16.1,20.5,"20:56:48",1
"22/06/09","21:10",0.0,21.4,71.6,1008.6,324.2,2.1,3.3,330.9,0.00,16.1,20.5,"21:04:48",1
"22/06/09","21:20",0.0,21.3,73.0,1008.6,329.3,2.0,3.2,340.9,0.00,16.3,20.3,"21:10:08",1
"22/06/09","21:30",0.0,21.1,74.1,1009.0,335.4,1.7,2.6,327.6,0.00,16.3,20.4,"21:27:52",1
"22/06/09","21:40",0.0,21.1,74.8,1009.3,331.6,1.8,3.5,328.4,0.00,16.5,20.3,"21:30:02",1
"22/06/09","21:50",0.0,21.0,75.0,1009.0,320.1,1.8,3.1,328.1,0.00,16.4,20.4,"21:41:12",1
"22/06/09","22:00",0.0,20.9,75.1,1009.5,324.2,1.5,2.4,341.0,0.00,16.4,20.2,"21:52:24",1
"22/06/09","22:10",0.0,20.9,75.2,1009.5,324.1,0.8,1.6,331.1,0.00,16.4,20.2,"22:01:12",1
"22/06/09","22:20",0.0,21.0,75.8,1009.7,312.4,1.5,2.4,320.3,0.00,16.6,20.3,"22:19:04",1
"22/06/09","22:30",0.0,20.8,76.0,1009.5,311.7,1.7,3.1,319.8,0.00,16.5,20.2,"22:29:44",1
"22/06/09","22:40",0.0,20.7,75.9,1009.3,308.9,1.6,2.6,337.7,0.00,16.3,20.0,"22:32:00",1
"22/06/09","22:50",0.0,20.4,76.7,1009.3,326.4,2.0,3.1,332.4,0.00,16.2,20.4,"22:47:28",1
"22/06/09","23:00",0.0,20.2,77.6,1009.7,322.6,2.1,2.9,336.3,0.00,16.2,20.1,"22:52:16",1
"22/06/09","23:10",0.0,19.8,78.5,1009.5,311.4,1.5,2.8,323.5,0.00,16.0,20.1,"23:01:52",1
"22/06/09","23:20",0.0,19.3,79.2,1009.7,92.5,0.1,0.5,114.0,0.00,15.6,19.9,"23:12:48",1
"22/06/09","23:30",0.0,19.2,80.5,1009.7,309.6,1.3,2.0,332.9,0.00,15.8,20.1,"23:26:16",1
"22/06/09","23:40",0.0,19.1,81.4,1009.3,283.9,0.6,1.4,302.7,0.00,15.9,20.2,"23:33:28",1
"22/06/09","23:50",0.0,18.8,81.9,1009.5,306.9,1.0,1.7,310.9,0.00,15.7,20.1,"23:41:28",1
"22/06/09","24:00",0.0,18.9,82.9,1009.5,314.0,1.7,3.1,323.8,0.00,16.0,20.1,"23:57:36",1
